Back to catalog

DELTA 1 DEB

AliveSSO
NORAD 21276·DEBRIS·🇺🇸 United States

Launched Jun 12, 1975 from Vandenberg Space Force Base

Loading…

Next Passes (next 24 hours)

TLE

FreshSource: Space-Track

Epoch: Sep 14, 2026, 03:22 UTC

1 21276U 75052M   26257.14035714  .00000004  00000-0  93354-4 0  9996
2 21276  99.9937 154.4979 0045319 254.9749 269.1724 13.35586181723607

Track DELTA 1 DEB in real time with AllMySat

Download on the App Store